Regional Weather Roundup
Issued by NWS

Home | Current Version | Previous Version | Text Only | Print | Product List | Glossary On
Versions: 1 2 3 4 5 6 7 8 9 10 11 12 13 14 15 16 17 18 19 20 21 22 23 24 25 26 27 28 29 30 31 32 33 34 35 36 37 38 39 40 41 42 43 44 45 46 47 48 49 50
000
ASUS45 KREV 211610
RWRNV
NEVADA REGIONAL WEATHER ROUNDUP
NATIONAL WEATHER SERVICE RENO NV
800 AM PST TUE FEB 21 2017

NOTE: "FAIR" INDICATES FEW OR NO CLOUDS BELOW 12,000 FEET WITH NO
SIGNIFICANT WEATHER AND/OR OBSTRUCTIONS TO VISIBILITY.

NVZ001-003-004-211700-
WESTERN NEVADA

CITY           SKY/WX    TMP DP  RH WIND       PRES   REMARKS
RENO           NOT AVBL
CARSON CITY    PTSUNNY   39  28  65 SW12G21   30.03R
MINDEN         FAIR      37  32  81 S9G17     30.01R
PYRAMID LAKE     N/A     37 N/A N/A NW3         N/A
FALLON         NOT AVBL
LOVELOCK       NOT AVBL
HAWTHORNE      MOSUNNY   52  30  43 S17G24    30.03R
$$

NVZ002-CAZ072-073-211700-
NORTHERN AND CENTRAL SIERRA

CITY           SKY/WX    TMP DP  RH WIND       PRES   REMARKS
S. LAKE TAHOE  LGT SNOW  35  27  72 S18G39    30.02R
SQUAW VLY 8000   N/A     32  32 100 SW16        N/A
SUSANVILLE     CLOUDY    37  34  87 W7        30.00R FOG
MAMMOTH LAKES  CLOUDY    35  30  82 S16G25    30.14R
BRIDGEPORT     SNOW      32  27  81 W9G30     30.02S VSB 1/2
$$

NVZ030-031-036-211700-
NORTHERN NEVADA

CITY           SKY/WX    TMP DP  RH WIND       PRES   REMARKS
ELKO           NOT AVBL
WINNEMUCCA     NOT AVBL
WENDOVER       FAIR      52  32  46 SW22      30.01R
$$

NVZ035-037-211700-
CENTRAL NEVADA

CITY           SKY/WX    TMP DP  RH WIND       PRES   REMARKS
ELY            NOT AVBL
$$

NVZ013-014-211700-
SOUTH CENTRAL NEVADA

CITY           SKY/WX    TMP DP  RH WIND       PRES   REMARKS
TONOPAH        NOT AVBL
$$

NVZ017-020-022-211700-
SOUTHERN NEVADA

CITY           SKY/WX    TMP DP  RH WIND       PRES   REMARKS
LAS VEGAS      NOT AVBL
NELLIS AFB     NOT AVBL
HENDERSON      NOT AVBL
MERCURY        NOT AVBL
$$



USA.gov is the U.S. government's official web portal to all federal, state and local government web resources and services.